This is the latest recevied weather packets stored in our database for station/object OK0EK-11. If no packets are shown the sender has not sent any weather packets the latest 10 day(s).
| Time | Temp. | Humidity | Pressure | Rain* | Wind** | Luminosity | Snow |
|---|---|---|---|---|---|---|---|
| 1777807699 | 16.67° C | 47% | 1021.2 hPa | - | - | - | - |
| 1777807100 | 16.67° C | 46% | 1021.4 hPa | - | - | - | - |
| 1777806501 | 16.67° C | 47% | 1021.6 hPa | - | - | - | - |
| 1777805918 | 15.56° C | 48% | 1021.5 hPa | - | - | - | - |
| 1777805901 | 15.56° C | 48% | 1021.5 hPa | - | - | - | - |
| 1777805302 | 16.11° C | 47% | 1021.6 hPa | - | - | - | - |
| 1777804702 | 16.11° C | 47% | 1021.6 hPa | - | - | - | - |
| 1777804103 | 15.56° C | 49% | 1021.6 hPa | - | - | - | - |
| 1777803503 | 15.56° C | 47% | 1021.8 hPa | - | - | - | - |
| 1777802904 | 15.56° C | 47% | 1021.8 hPa | - | - | - | - |
| 1777802318 | 15.56° C | 48% | 1021.8 hPa | - | - | - | - |
| 1777802305 | 15.56° C | 48% | 1021.8 hPa | - | - | - | - |
| 1777801706 | 15° C | 49% | 1021.8 hPa | - | - | - | - |
| 1777801107 | 15° C | 49% | 1021.8 hPa | - | - | - | - |
| 1777800521 | 14.44° C | 49% | 1021.9 hPa | - | - | - | - |
| 1777800507 | 14.44° C | 49% | 1021.9 hPa | - | - | - | - |
| 1777799908 | 14.44° C | 49% | 1021.8 hPa | - | - | - | - |
| 1777799308 | 14.44° C | 50% | 1021.7 hPa | - | - | - | - |
| 1777798709 | 13.89° C | 51% | 1021.9 hPa | - | - | - | - |
| 1777798109 | 13.89° C | 51% | 1021.9 hPa | - | - | - | - |
| 1777797510 | 13.33° C | 51% | 1022 hPa | - | - | - | - |
| 1777796911 | 13.33° C | 52% | 1021.7 hPa | - | - | - | - |
| 1777796312 | 12.78° C | 52% | 1021.8 hPa | - | - | - | - |
| 1777795713 | 12.78° C | 53% | 1021.7 hPa | - | - | - | - |
| 1777795113 | 12.22° C | 54% | 1021.8 hPa | - | - | - | - |
* Rain since midnight (hover to see other rain measurements)
** Current wind speed in m/s (hover to see current wind gust speed)